Date String (YYYY-MM-DD hh:mm:ss) UTC,Instrument flags,Ambient pressure (hPa),Sample flow (lpm),Bypass flow (lpm),Sample temperature (°C),Ambient temperature (°C),ASC tube jacket temperature (°C),LED temperature (°C),Box temperature (°C),Sample RH (%),Span deviation,Mass concentration (μg/m³),Mass concentration (μg/m³),Mass concentration (μg/m³)
DateTimeUTC,F1_M11,P_M11,Q1_M11,Q2_M11,T1_M11,T2_M11,T3_M11,T4_M11,T5_M11,U1_M11,ZSPAN_M11,X2_M11,X0_M11,X1_M11
2022-07-12 11:00:00,,0830.9,5.00,0.00,30.0,28.7,00.0,38.8,31.8,29.0,-000.9,0010.19,0018.58,0008.86
2022-07-12 11:01:00,,0831.0,5.00,0.00,30.0,28.8,00.0,38.8,31.9,28.9,-000.0,0010.13,0018.08,0008.75
2022-07-12 11:02:00,,0831.0,5.00,0.00,30.0,28.8,00.0,38.8,31.9,28.9,-000.6,0009.90,0016.66,0008.62
2022-07-12 11:03:00,,0830.9,5.00,0.00,30.0,28.8,00.0,38.8,31.9,28.8,0000.0,0009.75,0016.02,0008.51
2022-07-12 11:04:00,,0830.9,5.00,0.00,30.0,28.9,00.0,38.8,31.9,28.7,0000.0,0009.60,0016.27,0008.42
2022-07-12 11:05:00,,0830.9,5.01,0.00,30.0,28.9,00.0,38.8,31.9,28.7,0000.0,0009.54,0015.70,0008.35
2022-07-12 11:06:00,,0830.9,5.00,0.00,30.1,29.0,00.0,38.8,31.9,28.7,0000.0,0009.49,0016.43,0008.33
2022-07-12 11:07:00,,0830.9,5.00,0.00,30.1,29.0,00.0,38.8,32.0,28.6,0000.0,0009.45,0017.03,0008.29
2022-07-12 11:08:00,,0830.9,5.00,0.00,30.1,29.0,00.0,38.8,32.0,28.6,0000.0,0009.46,0017.81,0008.26
2022-07-12 11:09:00,,0831.0,5.00,0.00,30.1,29.0,00.0,38.8,32.0,28.6,0001.7,0009.44,0018.67,0008.24
2022-07-12 11:10:00,,0831.0,5.00,0.00,30.1,29.1,00.0,38.9,32.0,28.5,0002.1,0009.42,0018.64,0008.21
2022-07-12 11:11:00,,0831.0,5.00,0.00,30.1,29.1,00.0,38.9,32.0,28.5,0001.9,0009.38,0018.70,0008.21
2022-07-12 11:12:00,,0831.0,5.00,0.00,30.2,29.1,00.0,38.9,32.0,28.5,0002.2,0009.38,0019.84,0008.25
2022-07-12 11:13:00,,0830.9,4.99,0.00,30.2,29.1,00.0,38.9,32.1,28.5,0002.2,0009.47,0020.64,0008.30
2022-07-12 11:14:00,,0830.9,4.99,0.00,30.2,29.1,00.0,38.9,32.1,28.5,0001.7,0009.59,0021.64,0008.35
2022-07-12 11:15:00,,0830.9,5.00,0.00,30.2,29.2,00.0,38.9,32.1,28.4,0001.3,0009.66,0021.73,0008.38
2022-07-12 11:16:00,,0830.9,5.01,0.00,30.2,29.2,00.0,39.0,32.1,28.4,0000.5,0009.69,0021.50,0008.41
2022-07-12 11:17:00,,0830.9,5.00,0.00,30.2,29.2,00.0,39.0,32.1,28.4,0000.0,0009.69,0021.03,0008.43
2022-07-12 11:18:00,,0830.9,5.00,0.00,30.2,29.2,00.0,39.0,32.1,28.3,0000.2,0009.74,0021.65,0008.45
2022-07-12 11:19:00,,0830.9,5.00,0.00,30.3,29.2,00.0,39.0,32.2,28.3,0000.0,0009.75,0021.32,0008.48
2022-07-12 11:20:00,,0830.9,5.00,0.00,30.3,29.3,00.0,39.0,32.2,28.3,0000.0,0009.79,0020.31,0008.52
2022-07-12 11:21:00,,0831.0,5.00,0.00,30.3,29.2,00.0,39.0,32.2,28.2,0000.0,0009.81,0020.75,0008.51
2022-07-12 11:22:00,,0830.9,5.00,0.00,30.3,28.4,00.0,39.0,32.1,28.2,0000.0,0009.83,0021.11,0008.51
2022-07-12 11:23:00,,0831.0,5.00,0.00,30.2,27.8,00.0,38.9,31.9,28.3,0000.0,0009.86,0020.34,0008.51
2022-07-12 11:24:00,,0831.0,5.00,0.00,30.1,27.6,00.0,38.9,31.8,28.4,0000.0,0009.87,0019.58,0008.50
2022-07-12 11:25:00,,0831.0,5.00,0.00,30.0,27.6,00.0,38.9,31.7,28.7,0000.0,0009.84,0019.22,0008.51
2022-07-12 11:26:00,,0831.0,5.00,0.00,30.0,27.7,00.0,38.8,31.6,28.9,0000.0,0009.84,0018.66,0008.53
2022-07-12 11:27:00,,0831.1,5.00,0.00,29.9,27.8,00.0,38.8,31.6,29.0,0000.0,0009.88,0019.09,0008.55
2022-07-12 11:28:00,,0831.0,4.99,0.00,29.9,27.9,00.0,38.8,31.6,29.0,0000.2,0009.94,0019.08,0008.57
2022-07-12 11:29:00,,0831.1,5.01,0.00,29.9,28.1,00.0,38.8,31.7,29.1,0000.9,0009.97,0018.72,0008.62
2022-07-12 11:30:00,,0831.0,4.99,0.00,29.9,28.2,00.0,38.8,31.7,29.1,0000.1,0010.04,0017.96,0008.68
2022-07-12 11:31:00,,0831.0,5.00,0.00,29.9,28.3,00.0,38.8,31.7,29.1,0000.1,0010.09,0018.97,0008.75
2022-07-12 11:32:00,,0831.0,5.01,0.00,29.9,28.4,00.0,38.8,31.7,29.2,0000.1,0010.18,0019.21,0008.85
2022-07-12 11:33:00,,0831.0,5.00,0.00,29.9,28.5,00.0,38.8,31.7,29.2,0000.1,0010.26,0019.47,0008.96
2022-07-12 11:34:00,,0831.1,5.00,0.00,29.9,28.5,00.0,38.8,31.7,29.1,0000.6,0010.35,0020.32,0009.05
2022-07-12 11:35:00,,0831.0,5.00,0.00,29.9,28.6,00.0,38.8,31.8,29.1,0000.0,0010.41,0023.22,0009.11
2022-07-12 11:36:00,,0831.0,5.00,0.00,29.9,28.6,00.0,38.8,31.7,29.1,0000.0,0010.47,0023.69,0009.18
2022-07-12 11:37:00,,0831.0,5.00,0.00,30.0,28.7,00.0,38.8,31.8,29.0,0000.0,0010.49,0023.19,0009.25
2022-07-12 11:38:00,,0831.0,5.00,0.00,30.0,28.7,00.0,38.8,31.8,29.0,0000.0,0010.50,0023.65,0009.30
2022-07-12 11:39:00,,0831.0,5.00,0.00,30.0,28.8,00.0,38.8,31.8,29.0,0000.0,0010.54,0023.63,0009.34
2022-07-12 11:40:00,,0831.0,5.00,0.00,30.0,28.8,00.0,38.8,31.9,28.9,0000.0,0010.63,0023.12,0009.39
2022-07-12 11:41:00,,0831.1,5.00,0.00,30.0,28.8,00.0,38.8,31.9,28.9,0000.0,0010.67,0023.46,0009.41
2022-07-12 11:42:00,,0831.0,5.00,0.00,30.0,28.9,00.0,38.8,31.9,28.9,0000.0,0010.72,0023.71,0009.42
2022-07-12 11:43:00,,0831.0,4.99,0.00,30.0,28.9,00.0,38.8,31.9,28.8,0000.0,0010.72,0023.30,0009.39
2022-07-12 11:44:00,,0831.0,5.00,0.00,30.0,28.9,00.0,38.8,31.9,28.8,0000.0,0010.71,0022.77,0009.35
2022-07-12 11:45:00,,0831.1,5.00,0.00,30.1,28.9,00.0,38.8,31.9,28.7,0000.0,0010.70,0022.07,0009.31
2022-07-12 11:46:00,,0831.2,5.00,0.00,30.1,28.9,00.0,38.9,32.0,28.7,0000.0,0010.68,0020.23,0009.29
2022-07-12 11:47:00,,0831.2,5.01,0.00,30.1,29.0,00.0,38.9,32.0,28.6,0000.0,0010.64,0019.73,0009.22
2022-07-12 11:48:00,,0831.2,5.00,0.00,30.1,29.0,00.0,38.9,32.0,28.5,0000.0,0010.61,0019.91,0009.13
2022-07-12 11:49:00,,0831.2,5.00,0.00,30.1,29.0,00.0,38.9,32.0,28.5,0002.6,0010.52,0020.63,0009.02
2022-07-12 11:50:00,,0831.2,5.00,0.00,30.1,29.0,00.0,38.9,32.0,28.4,0000.0,0010.42,0021.22,0008.90
2022-07-12 11:51:00,,0831.2,5.00,0.00,30.2,29.1,00.0,38.9,32.0,28.4,0000.0,0010.25,0021.29,0008.78
2022-07-12 11:52:00,,0831.2,5.00,0.00,30.2,29.1,00.0,38.9,32.0,28.3,0000.0,0010.07,0021.16,0008.65
2022-07-12 11:53:00,,0831.2,5.00,0.00,30.2,29.1,00.0,39.0,32.0,28.3,0000.2,0009.92,0020.37,0008.53
2022-07-12 11:54:00,,0831.2,5.00,0.00,30.2,29.1,00.0,39.0,32.1,28.3,0000.7,0009.83,0019.97,0008.43
2022-07-12 11:55:00,,0831.2,5.00,0.00,30.2,29.1,00.0,39.0,32.1,28.3,0000.1,0009.70,0020.04,0008.34
2022-07-12 11:56:00,,0831.2,5.00,0.00,30.2,29.2,00.0,39.0,32.1,28.3,0000.0,0009.62,0020.30,0008.26
2022-07-12 11:57:00,,0831.2,5.00,0.00,30.2,29.2,00.0,39.0,32.1,28.3,0000.0,0009.51,0019.12,0008.18
2022-07-12 11:58:00,,0831.2,5.00,0.00,30.3,29.2,00.0,39.0,32.1,28.3,0000.0,0009.44,0019.30,0008.13
2022-07-12 11:59:00,,0831.2,5.00,0.00,30.3,29.2,00.0,39.0,32.1,28.3,0000.0,0009.39,0019.60,0008.10
